Regional Weather Roundup
Issued by NWS Jackson, KY

Home | Current Version | Previous Version | Graphics & Text | Print | Product List | Glossary On
Versions: 1 2 3 4 5 6 7 8 9 10 11 12 13 14 15 16 17 18 19 20 21 22 23 24 25 26 27 28 29 30 31 32 33 34 35 36 37 38 39 40 41 42 43 44 45 46 47 48 49 50
000
ASUS43 KJKL 171110
RWRJKL

EAST KENTUCKY HOURLY WEATHER ROUNDUP
NATIONAL WEATHER SERVICE JACKSON KY
700 AM EDT FRI APR 17 2015

NOTE: "FAIR" INDICATES FEW OR NO CLOUDS BELOW 12,000 FEET WITH
NO SIGNIFICANT WEATHER AND/OR OBSTRUCTIONS TO VISIBILITY.

* THESE REPORTS ARE NOT UNDER NWS QUALITY CONTROL AND MAY NOT
  REPORT WEATHER SUCH AS PRECIPITATION AND FOG.

KYZ079-080-083-085-087-088-110-112-115-119-120-171200
...EASTERN KENTUCKY...

CITY           SKY/WX    TMP DP  RH WIND       PRES   REMARKS
JACKSON        MOCLDY    57  55  93 CALM      30.14R
LONDON         CLOUDY    57  52  83 SW5       30.15S
SOMERSET*      CLOUDY    55  55 100 CALM      30.15S
MONTICELLO*    MOCLDY    57  57 100 S3        30.17S
MIDDLESBORO*   CLOUDY    57  56  99 CALM      30.16S
HARLAN APT*    CLOUDY    54  54 100 CALM      30.16S
BLACK MTN*       N/A     52  50  93 S6          N/A
PIKEVILLE APT* CLOUDY    57  54  88 CALM      30.14R
BIG SANDY*     CLOUDY    58  55  88 S3        30.14R
MOREHEAD APT*  CLOUDY    61  55  82 SW5       30.14S
$$

KYZ035-036-041-042-044-050-067-078-099-171200
...CENTRAL KENTUCKY...

CITY           SKY/WX    TMP DP  RH WIND       PRES   REMARKS
MT STERLING*   CLOUDY    59  55  88 SW7       30.14S
FLEMING/MASON* CLOUDY    59  57  94 SW7       30.12S
DANVILLE*      CLOUDY    55  55 100 S3        30.14S
RICHMOND*      CLOUDY    59  54  82 S3        30.13R
LEXINGTON      CLOUDY    59  57  93 S7        30.12S
FRANKFORT      CLOUDY    60  58  92 SW6       30.10S
$$

KYZ091>093-OHZ055-061-077-WVZ005-015-034-035-042-171200
...SOUTHERN OHIO/WEST VIRGINIA...

CITY           SKY/WX    TMP DP  RH WIND       PRES   REMARKS
COVINGTON      PTCLDY    59  56  89 NW7       30.10R
COLUMBUS       PTCLDY    56  56 100 NW6       30.06F
DAYTON         PTCLDY    55  53  93 NW8       30.09R FOG
WILMINGTON     CLEAR     58  56  93 W5        30.08S FOG
HUNTINGTON     CLOUDY    57  54  89 CALM      30.10R
CHARLESTON     MOCLDY    56  51  84 CALM      30.11S
PINEVILLE*     CLOUDY    53  53 100 MISG      30.20S
BECKLEY        MOCLDY    53  49  86 CALM      30.15S
BLUEFIELD      CLOUDY    56  51  84 CALM      30.18R
$$

VAZ002-007-008-TNZ017-027-036-066-071-171200
...SOUTHWEST VIRGINIA/EAST TENNESSEE...

CITY           SKY/WX    TMP DP  RH WIND       PRES   REMARKS
WISE*          CLOUDY    54  54 100 S6        30.18S
JONESVILLE*    CLOUDY    54  54 100 CALM      30.19R
ABINGDON*      CLOUDY    56  54  91 CALM      30.17R
BRISTOL        CLOUDY    55  52  89 CALM      30.17R
KNOXVILLE      CLOUDY    59  57  93 CALM      30.15R
OAK RIDGE      CLOUDY    60  56  86 CALM      30.16R
CROSSVILLE     CLOUDY    58  55  90 VRB3      30.16R
NASHVILLE      MOCLDY    59  57  93 CALM      30.12S
$$

...KEY TO REMARKS...
VSB - VISIBILITY IN MILES
WCI - WIND CHILL INDEX
HX  - HEAT INDEX

$$



USA.gov is the U.S. government's official web portal to all federal, state and local government web resources and services.